Regional Weather Roundup
Issued by NWS Bismarck, ND

Home | Current Version | Previous Version | Text Only | Print | Product List | Glossary On
Versions: 1 2 3 4 5 6 7 8 9 10 11 12 13 14 15 16 17 18 19 20 21 22 23 24 25 26 27 28 29 30 31 32 33 34 35 36 37 38 39 40 41 42 43 44 45 46 47 48 49 50
934
ASUS43 KBIS 292110
RWRBIS

NWR BROADCAST TEXT
NATIONAL WEATHER SERVICE BISMARCK ND
400 PM CDT SAT APR 29 2017

NOTE: "FAIR" INDICATES FEW OR NO CLOUDS BELOW 12,000 FEET WITH NO
SIGNIFICANT WEATHER AND/OR OBSTRUCTIONS TO VISIBILITY.


CITY           SKY/WX    TMP DP  RH WIND       PRES   REMARKS
WILLISTON      FAIR      61  32  33 S9        30.20F
MINOT          PTSUNNY   63  25  23 SW9       30.19F
MINOT AFB      FAIR      62  26  25 SW15      30.18F
BISMARCK       FAIR      63  17  17 VRB3      30.26S
DICKINSON      FAIR      57  19  22 MISG      30.20F
GARRISON         N/A     61  22  22 W6G18     30.21F
HETTINGER ARPT FAIR      57  19  22 NW6       30.24F
JAMESTOWN      FAIR      58  16  19 CALM      30.28R
HAZEN          FAIR      63  21  20 W14       30.23F
LINTON         FAIR      61  23  23 CALM      30.28S
MANDAN         FAIR      59  16  18 SE5       30.26S
STANLEY        FAIR      61  30  31 W13G24    30.22F
TIOGA          FAIR      59  27  29 SW18      30.21S
WATFORD CITY   FAIR      59  32  36 W12       30.20F
$$

CITY           SKY/WX    TMP DP  RH WIND       PRES   REMARKS
GRAND FORKS    PTSUNNY   60  24  25 VRB6      30.31R
GRAND FORKS AF FAIR      58  20  22 CALM      30.31R
DEVILS LAKE    FAIR      59  16  18 SW7       30.27S
FARGO          FAIR      60  20  21 VRB5      30.31S
CAVALIER       FAIR      59  27  29 S10G16    30.27S
GRAFTON        FAIR      59  23  25 SE8       30.31S
GWINNER        CLEAR     57  21  24 MISG      30.30F
LANGDON        FAIR      61  21  21 SW15G25   30.25F
ROLLA          FAIR      61  21  21 W17       30.21F
$$

CITY           SKY/WX    TMP DP  RH WIND       PRES   REMARKS
ABERDEEN       FAIR      58  16  19 VRB3G20   30.29F
MOBRIDGE       FAIR      63  14  15 CALM      30.24S
BUFFALO          N/A     57  16  20 VRB5      30.17F
RAPID CITY     FAIR      55  19  24 VRB3      30.23F
GLASGOW        FAIR      61  31  32 SW9G20    30.16F
SIDNEY         PTSUNNY   56  38  50 N6        30.20F
WOLF POINT     PTSUNNY   60  31  33 W6G17     30.17F
GLENDIVE       FAIR      58  28  32 S10       30.20F
MILES CITY     FAIR      59  25  27 S6        30.19F
BAKER          FAIR      55  22  27 CALM      30.21F
$$

CITY           SKY/WX    TMP DP  RH WIND       PRES   REMARKS
BILLINGS       FAIR      54  29  38 S8        30.18F
GREAT FALLS    FAIR      54  27  35 SW10      30.12F
REGINA         MOSUNNY   55  27  33 SW8G20    30.17F
ESTEVAN        MOSUNNY   61  27  27 W14G23    30.18S
$$





USA.gov is the U.S. government's official web portal to all federal, state and local government web resources and services.